Wind_Speed
31 34 33 24 26 33 39 46 52 63 65 71 74 76 76 76 53 46 63 68 53 52 49 51 67 70 63 65 66 58 50 46 44 40 42 47 52 47 48 51 54 53 53
31 27 25 20 17 29 37 46 61 66 73 81 78 91 79 77 81 71 54 63 62 61 47 54 81 78 76 80 78 61 58 50 44 40 49 57 42 50 48 52 54 56 52
26 23 22 20 25 32 38 47 58 69 78 81 81 82 74 67 67 63 62 63 59 74 73 73 78 78 75 77 82 80 72 75 66 56 57 60 52 62 59 61 57 56 58
23 14 13 18 25 34 42 55 66 68 84 85 91 80 74 68 72 72 66 75 68 83 82 83 83 90 87 86 89 89 91 87 84 78 67 61 59 61 65 64 68 61 60
24 20 18 20 31 38 44 54 65 74 79 77 78 78 83 76 78 83 85 89 88 94 96 97 95 94 91 84 84 81 77 93 101 90 85 85 83 78 65 69 72 73 71
22 18 17 22 24 34 42 53 64 80 74 81 81 88 90 85 86 90 90 98 99 104 102 103 100 103 104 88 91 79 77 90 92 103 109 95 99 89 89 82 83 89 85
22 18 14 19 22 28 40 51 58 66 75 84 85 88 89 90 100 104 100 106 93 104 106 104 107 110 108 105 104 101 93 86 86 85 100 98 100 98 92 92 91 101 100
23 25 19 19 21 27 36 47 54 65 71 80 79 89 90 94 101 104 101 103 106 100 107 115 112 113 117 118 117 114 109 105 105 103 109 102 104 103 103 105 101 107 103
22 23 21 20 23 26 34 47 58 66 71 80 79 89 97 103 108 109 106 104 112 112 115 117 120 121 122 122 124 126 124 121 117 123 118 115 112 117 102 107 112 99 103
27 26 26 27 28 28 31 38 47 57 65 71 79 84 97 107 114 115 113 112 120 123 123 123 126 129 129 132 129 128 130 126 124 126 117 119 125 123 109 112 108 109 102
30 32 32 33 37 38 38 37 43 46 59 70 76 82 89 97 110 117 117 115 125 130 131 131 132 132 133 135 136 133 129 117 119 119 121 116 113 112 108 99 106 103 106
39 38 41 41 43 44 44 47 49 51 56 61 72 85 86 93 101 110 119 125 123 122 129 133 130 127 126 119 126 134 133 123 119 123 120 116 114 112 109 105 102 106 103
48 47 48 49 50 52 54 54 55 57 60 63 71 73 79 90 95 104 109 110 113 115 114 120 118 119 118 122 124 126 125 121 126 125 120 110 110 103 99 96 95 95 100
54 54 55 57 57 59 61 62 63 63 65 68 73 76 80 84 85 87 91 96 101 103 104 112 108 112 120 120 115 115 117 121 126 120 123 124 115 110 102 100 99 95 98
64 64 64 65 66 67 67 69 70 73 74 75 76 78 82 84 85 88 90 94 96 99 102 104 108 112 114 117 119 119 121 119 121 127 128 121 114 111 106 104 105 105 106
63 65 69 73 76 77 76 75 77 80 82 83 83 84 84 84 84 85 88 91 93 95 98 100 103 105 109 111 112 114 114 114 119 124 120 116 114 113 110 110 109 108 108
64 67 70 73 75 78 80 83 84 86 88 91 92 89 87 87 88 88 90 92 95 97 99 102 105 106 107 107 108 109 110 111 115 118 117 117 116 117 116 116 115 114 113
68 71 74 74 76 78 80 82 84 85 86 84 83 83 84 85 86 88 88 90 91 94 96 97 100 101 102 102 102 102 103 104 105 106 108 109 109 109 110 112 115 118 118
66 68 69 70 71 73 75 78 80 82 82 82 81 81 80 80 81 82 83 84 86 88 90 91 94 94 94 94 95 95 95 96 97 98 99 99 99 100 101 102 103 106 110
63 64 63 63 63 64 65 67 68 68 69 69 69 70 73 75 76 77 79 81 83 85 87 89 90 90 89 89 90 91 91 91 92 93 94 94 94 95 96 97 98 98 98
62 61 62 63 61 62 63 62 62 62 62 63 65 66 67 69 71 74 78 81 82 84 85 83 83 84 84 83 83 84 85 85 85 85 85 85 84 84 85 87 88 91 93
60 60 60 59 60 60 59 59 59 60 60 62 64 66 69 71 74 77 80 82 83 82 81 80 81 82 82 80 80 81 80 80 79 79 78 76 75 75 75 75 76 78 81
57 56 56 57 57 57 57 58 58 60 62 65 67 70 73 76 78 78 78 78 78 77 77 76 76 75 75 73 72 74 75 73 73 74 73 73 72 72 71 70 70 70 72
52 52 54 54 55 56 57 58 60 63 65 68 70 72 75 76 76 77 76 75 76 74 71 70 69 70 70 68 66 67 68 67 66 66 66 65 66 67 65 65 65 65 66
49 51 52 53 55 56 58 61 64 66 68 71 72 74 76 77 78 77 77 75 74 71 69 67 66 66 66 64 61 61 62 62 62 62 62 62 62 61 61 60 60 61 61
48 50 52 54 56 59 62 64 66 69 71 72 74 76 77 77 77 77 77 74 73 71 67 65 63 61 62 59 57 57 57 57 57 57 57 58 59 58 58 56 57 58 58
Wind_Direction
295 296 287 262 239 217 210 205 195 188 185 187 190 193 200 205 212 224 222 228 238 253 247 248 237 248 262 256 263 262 262 264 257 259 259 267 275 267 281 273 272 273 273
305 292 271 258 227 210 204 196 185 190 191 193 192 195 205 208 216 225 226 221 227 234 220 225 226 250 258 254 258 258 257 258 250 238 262 251 260 263 263 268 274 269 274
294 279 247 231 191 194 194 195 184 185 194 193 195 200 202 211 212 216 220 210 223 225 221 225 229 255 259 260 250 256 259 259 256 253 251 250 259 258 256 262 269 274 278
294 259 240 194 190 195 190 189 188 193 193 198 198 197 205 210 212 215 222 213 220 223 222 233 245 249 249 245 255 257 257 255 257 257 254 254 259 260 258 259 258 266 267
270 276 252 230 206 200 196 192 193 195 202 202 200 206 207 209 213 212 217 217 223 225 226 234 242 245 243 243 246 247 250 254 257 254 259 252 261 259 262 264 262 262 263
258 267 257 238 225 208 204 201 199 195 201 198 205 211 211 211 211 215 218 220 227 227 231 235 241 247 247 249 246 248 250 258 258 259 262 256 256 259 264 270 271 271 266
279 251 247 228 226 218 213 206 204 204 199 205 210 210 214 217 217 219 224 226 230 235 232 236 241 242 244 245 249 254 254 248 247 253 257 258 258 262 264 263 272 274 269
277 268 250 239 223 215 214 213 210 211 211 215 212 212 214 217 221 223 225 228 233 238 239 240 240 245 248 250 252 253 254 254 255 257 261 257 260 263 269 273 273 268 262
259 262 259 233 224 215 214 214 211 213 213 215 218 216 218 221 222 225 230 232 234 237 241 246 249 249 251 253 254 255 256 258 260 258 265 265 268 272 269 270 273 264 262
250 247 246 229 233 235 230 221 219 219 221 222 226 223 223 225 228 231 235 240 240 243 244 246 248 252 254 254 256 260 262 265 267 268 270 271 272 272 270 270 265 265 262
247 241 238 240 236 236 238 236 231 230 227 227 229 231 233 231 232 235 239 242 242 244 245 249 252 253 253 255 257 260 262 265 268 269 272 273 271 270 272 266 261 255 257
241 242 243 241 240 241 244 245 241 238 238 237 235 235 237 238 237 237 238 239 242 245 247 250 253 255 257 261 261 261 261 266 270 273 273 272 270 270 266 263 263 256 253
244 244 241 243 243 243 245 246 247 247 244 244 243 244 244 242 239 242 244 248 250 253 255 256 260 259 263 265 266 266 267 269 268 271 272 269 269 263 263 261 258 252 252
244 245 246 247 249 249 247 247 248 248 249 250 250 250 249 248 250 251 251 252 253 255 256 256 259 261 262 265 264 265 266 265 264 266 268 270 268 264 262 258 257 255 252
244 244 247 249 249 251 251 250 253 256 256 255 253 253 253 254 256 257 258 258 259 260 260 260 261 261 263 263 264 264 264 265 267 269 269 266 263 262 261 260 259 257 253
250 251 252 253 253 254 256 256 257 258 259 261 261 260 260 261 262 263 263 263 263 265 266 266 265 265 265 265 265 265 263 263 264 264 265 264 264 263 262 260 257 255 255
258 258 258 258 259 261 262 263 263 264 267 267 268 272 274 274 274 274 273 271 270 269 268 268 267 266 265 263 262 263 263 262 261 261 262 261 260 260 260 261 260 259 256
263 263 263 265 265 266 267 268 269 271 273 274 275 275 275 275 275 275 273 271 270 269 268 267 266 266 267 268 268 268 268 267 266 265 265 265 264 262 261 260 259 258 258
266 267 269 270 271 271 272 271 272 274 275 277 278 278 277 277 276 276 275 274 273 273 272 272 272 272 272 272 272 271 270 270 268 267 266 266 265 264 263 261 259 257 257
271 273 274 275 275 274 274 274 275 276 276 276 275 275 275 276 276 276 275 276 276 275 275 275 275 276 276 275 273 271 270 270 269 268 268 267 265 264 262 261 261 260 258
275 276 277 277 278 278 279 280 280 279 279 279 278 278 278 280 281 282 282 282 281 281 281 281 281 280 277 275 274 274 273 272 271 270 269 268 266 265 263 261 260 259 258
276 277 278 279 280 281 282 282 283 284 283 283 284 286 287 287 286 286 286 285 285 285 284 284 282 280 280 279 278 277 275 274 273 272 271 270 269 267 264 262 259 255 253
275 278 281 282 283 284 284 285 285 287 288 290 291 291 291 290 290 289 288 288 287 286 285 285 285 283 281 280 278 277 276 274 273 272 272 270 269 267 265 263 260 256 254
281 283 282 283 284 284 286 289 291 291 292 293 293 293 294 293 293 292 291 291 290 289 290 289 288 286 284 281 280 278 277 275 274 272 270 269 267 266 264 262 260 257 254
281 282 283 284 286 289 292 293 293 295 295 296 297 297 297 297 297 296 294 294 295 294 294 293 291 288 286 284 283 280 278 275 273 271 269 267 266 265 264 261 260 257 254
282 284 287 289 291 292 293 295 297 298 299 299 299 299 299 298 297 298 299 299 299 298 297 295 292 290 288 286 283 280 277 275 273 270 268 266 265 263 262 261 259 257 255
Height
10362 10360 10353 10353 10354 10357 10366 10381 10398 10418 10437 10456 10478 10498 10508 10516 10527 10534 10545 10559 10567 10573 10572 10580 10568 10559 10556 10561 10565 10570 10573 10575 10579 10580 10578 10577 10581 10582 10584 10580 10581 10584 10585
10355 10355 10348 10347 10354 10358 10366 10375 10391 10411 10420 10436 10455 10471 10487 10498 10508 10523 10529 10538 10548 10553 10551 10550 10560 10540 10537 10542 10546 10554 10558 10563 10565 10568 10560 10561 10559 10568 10569 10565 10564 10567 10571
10354 10349 10344 10345 10347 10350 10359 10374 10387 10400 10414 10432 10443 10459 10473 10484 10492 10501 10506 10515 10526 10524 10531 10529 10527 10524 10523 10522 10524 10531 10538 10543 10552 10555 10552 10552 10548 10551 10556 10555 10550 10550 10552
10350 10347 10341 10346 10347 10349 10355 10365 10381 10393 10404 10411 10421 10445 10457 10465 10476 10485 10495 10503 10502 10505 10505 10505 10504 10501 10502 10498 10506 10511 10518 10525 10532 10539 10542 10540 10537 10536 10537 10539 10539 10541 10538
10345 10344 10343 10341 10344 10347 10353 10363 10375 10382 10395 10412 10427 10436 10445 10452 10456 10466 10469 10473 10476 10477 10479 10480 10477 10478 10475 10480 10483 10489 10493 10502 10506 10512 10519 10523 10518 10522 10520 10523 10526 10530 10531
10341 10340 10340 10340 10343 10346 10353 10358 10369 10379 10389 10397 10407 10409 10423 10432 10440 10446 10450 10450 10447 10442 10450 10455 10456 10459 10458 10463 10464 10468 10469 10476 10480 10487 10494 10502 10499 10502 10503 10506 10508 10508 10510
10338 10337 10337 10338 10339 10343 10347 10353 10359 10369 10377 10385 10391 10401 10408 10415 10419 10424 10429 10432 10431 10434 10438 10435 10434 10430 10432 10439 10441 10445 10448 10450 10453 10459 10470 10474 10473 10477 10485 10489 10488 10492 10493
10334 10333 10333 10333 10334 10337 10341 10347 10355 10361 10368 10373 10380 10389 10397 10400 10403 10406 10410 10413 10414 10413 10415 10416 10412 10411 10413 10411 10416 10420 10423 10428 10433 10440 10442 10446 10451 10453 10458 10458 10463 10463 10466
10330 10329 10329 10329 10329 10331 10334 10340 10345 10352 10356 10361 10368 10376 10380 10383 10385 10389 10392 10393 10390 10390 10392 10388 10388 10390 10389 10390 10393 10394 10399 10403 10407 10408 10415 10420 10424 10426 10428 10432 10432 10436 10438
10324 10324 10325 10326 10326 10327 10328 10331 10336 10340 10344 10349 10355 10362 10364 10364 10367 10368 10368 10367 10367 10368 10369 10369 10370 10366 10368 10369 10368 10371 10372 10375 10376 10379 10383 10386 10391 10395 10395 10401 10403 10405 10410
10316 10318 10319 10320 10320 10321 10322 10323 10324 10325 10328 10333 10337 10340 10344 10348 10350 10351 10347 10347 10347 10346 10347 10343 10342 10346 10344 10345 10346 10345 10347 10346 10347 10351 10351 10357 10356 10356 10360 10365 10367 10371 10374
10303 10306 10308 10309 10311 10312 10313 10314 10316 10317 10318 10319 10320 10322 10321 10322 10323 10322 10322 10322 10321 10319 10317 10317 10315 10315 10316 10315 10315 10317 10319 10321 10318 10318 10321 10322 10325 10324 10326 10335 10339 10338 10341
10291 10292 10293 10296 10297 10298 10299 10299 10300 10302 10303 10303 10301 10299 10298 10298 10297 10297 10297 10296 10297 10297 10295 10292 10289 10288 10287 10286 10290 10289 10289 10288 10289 10291 10291 10292 10293 10292 10291 10293 10301 10306 10310
10277 10278 10279 10279 10280 10281 10281 10281 10281 10282 10282 10283 10281 10280 10278 10278 10277 10277 10278 10276 10273 10270 10267 10266 10263 10261 10262 10259 10255 10255 10254 10254 10259 10260 10263 10262 10260 10261 10261 10263 10267 10270 10279
10260 10260 10261 10262 10261 10260 10261 10262 10262 10261 10260 10260 10259 10258 10256 10255 10254 10253 10252 10252 10248 10246 10244 10239 10236 10234 10230 10225 10222 10219 10220 10219 10222 10225 10227 10226 10224 10225 10226 10228 10233 10237 10242
10242 10244 10244 10244 10243 10242 10241 10242 10242 10240 10238 10236 10236 10235 10233 10234 10234 10233 10231 10228 10225 10220 10213 10208 10203 10198 10196 10192 10188 10185 10183 10182 10183 10186 10186 10188 10190 10190 10191 10191 10195 10199 10205
10224 10224 10223 10223 10223 10221 10221 10220 10219 10218 10216 10213 10208 10207 10206 10205 10204 10202 10199 10196 10192 10188 10182 10175 10168 10163 10158 10154 10150 10147 10142 10142 10145 10148 10149 10150 10152 10153 10153 10154 10155 10161 10168
10205 10203 10202 10202 10202 10201 10199 10197 10193 10190 10187 10184 10183 10181 10179 10176 10172 10168 10164 10160 10155 10150 10145 10139 10133 10129 10124 10120 10117 10115 10113 10112 10113 10113 10111 10109 10110 10111 10111 10113 10115 10119 10126
10188 10186 10185 10183 10182 10180 10176 10172 10169 10167 10164 10160 10156 10152 10149 10145 10142 10137 10132 10127 10122 10117 10111 10106 10100 10095 10091 10087 10083 10080 10078 10074 10072 10070 10068 10067 10068 10068 10069 10071 10075 10082 10087
10170 10169 10167 10164 10162 10159 10155 10152 10149 10146 10142 10139 10135 10130 10124 10120 10115 10111 10105 10099 10093 10086 10080 10075 10068 10063 10060 10055 10049 10044 10041 10039 10036 10034 10031 10030 10031 10031 10032 10036 10039 10043 10048
10152 10151 10148 10145 10142 10139 10135 10132 10128 10125 10120 10116 10111 10107 10103 10097 10089 10082 10075 10067 10060 10054 10048 10042 10036 10028 10023 10019 10016 10011 10008 10004 10001 9999 9997 9997 9998 9998 9998 10001 10005 10008 10012
10136 10133 10131 10128 10124 10120 10116 10112 10108 10103 10098 10093 10088 10083 10077 10070 10063 10056 10048 10039 10030 10022 10016 10012 10004 9997 9990 9988 9984 9978 9975 9971 9968 9966 9965 9965 9966 9966 9965 9968 9972 9976 9981
10118 10116 10113 10110 10105 10101 10096 10092 10088 10082 10076 10071 10065 10058 10051 10044 10035 10028 10020 10011 10002 9995 9989 9982 9974 9966 9960 9956 9954 9947 9942 9941 9939 9937 9936 9936 9936 9935 9937 9940 9943 9947 9951
10104 10100 10095 10091 10087 10082 10078 10073 10067 10061 10055 10049 10042 10034 10026 10017 10008 9999 9989 9981 9973 9966 9960 9953 9946 9937 9930 9927 9925 9920 9914 9912 9911 9910 9909 9910 9909 9909 9911 9914 9917 9920 9924
10087 10083 10078 10074 10069 10064 10058 10052 10046 10041 10033 10025 10018 10009 9999 9989 9978 9969 9960 9952 9943 9936 9930 9924 9918 9910 9903 9899 9898 9894 9889 9887 9886 9885 9885 9886 9885 9886 9888 9891 9893 9894 9898
10071 10067 10062 10057 10052 10046 10040 10034 10026 10019 10011 10003 9994 9984 9974 9963 9952 9942 9932 9922 9915 9908 9902 9896 9890 9885 9879 9876 9873 9869 9866 9864 9863 9862 9862 9862 9863 9864 9865 9868 9870 9872 9876